Regional Weather Roundup
Issued by NWS

Home | Current Version | Previous Version | Graphics & Text | Print | Product List | Glossary Off
Versions: 1 2 3 4 5 6 7 8 9 10 11 12 13 14 15 16 17 18 19 20 21 22 23 24 25 26 27 28 29 30 31 32 33 34 35 36 37 38 39 40 41 42 43 44 45 46 47 48 49 50

000
ASUS43 KFSD 232010
RWRSD

WEATHER ROUNDUP FOR SOUTH DAKOTA
NATIONAL WEATHER SERVICE SIOUX FALLS SD
300 PM CDT WED AUG 23 2017

NOTE: "FAIR" INDICATES FEW OR NO CLOUDS BELOW 12,000 FEET WITH NO
SIGNIFICANT WEATHER AND/OR OBSTRUCTIONS TO VISIBILITY.


SDZ001>005-009-010-012>017-232100-
NORTHWEST AND NORTH CENTRAL SOUTH DAKOTA

CITY           SKY/WX    TMP DP  RH WIND       PRES   REMARKS
BUFFALO          N/A     86  46  24 VRB3      29.94F
FAITH            N/A     83  56  39 VRB3      29.98F
MOBRIDGE       SUNNY     83  61  47 SE10      29.95F
$$

SDZ012>016-024>037-041>051-057-063-072>074-232100-
SOUTHWEST AND SOUTH CENTRAL SOUTH DAKOTA

CITY           SKY/WX    TMP DP  RH WIND       PRES   REMARKS
RAPID CTY ARPT SUNNY     87  52  29 VRB3      30.00F
PIERRE         SUNNY     83  58  42 E6        29.94F
CUSTER         MOSUNNY   80  49  33 SE9G23    30.14F
ELLSWORTH AFB  SUNNY     87  51  28 SE5       30.00F
PHILIP         SUNNY     89  54  30 CALM      29.93F
PINE RIDGE     SUNNY     90  55  30 VRB5      30.00F
SPEARFISH      LGT RAIN  86  48  26 E7        30.05F
WINNER         FAIR      87  62  43 SW14G24   29.96F
$$

SDZ004>011-016>023-039-040-232100-
NORTHEAST SOUTH DAKOTA

CITY           SKY/WX    TMP DP  RH WIND       PRES   REMARKS
ABERDEEN       SUNNY     82  54  37 E13G18    30.00F
WATERTOWN      MOSUNNY   75  53  46 S13       30.05F
BROOKINGS      SUNNY     75  56  51 SE13      30.06F
SISSETON         N/A     77  56  48 S12G18    30.02F
$$

SDZ017-020-022-023-036>040-048>070-232100-
SOUTHEAST SOUTH DAKOTA

CITY           SKY/WX    TMP DP  RH WIND       PRES   REMARKS
SIOUX FALLS    MOSUNNY   80  58  46 S10       30.05F
HURON          MOSUNNY   80  58  46 S14G20    29.99F
CHAMBERLAIN    SUNNY     87  62  42 SE9G17    29.96F
MITCHELL       PTSUNNY   79  58  48 S13G21    30.01F
YANKTON        SUNNY     79  59  50 S14       30.04F
$$

ABBREVIATIONS USED IN REMARKS
   TC - TEMPERATURE IN CELSIUS
  WCI - WIND CHILL INDEX
   HX - HEAT INDEX
  VSB - VISIBILITY





USA.gov is the U.S. government's official web portal to all federal, state and local government web resources and services.